| time (UTC) | temp F | wind direction | speed knots | gust knots | rain 1hr in | rain 24hr in | rain mn in | humidity % | barometer mb |
| 20260510093116 | 49 | 0 | 0.0 | 0.9 | 0.00 | 0.33 | 0.00 | 94 | 1011.1 |
| 20260510091547 | 49 | 0 | 0.0 | 1.7 | 0.00 | 0.33 | 0.00 | 94 | 1010.6 |
| 20260510090051 | 50 | 38 | 0.0 | 2.6 | 0.00 | 0.33 | 0.00 | 94 | 1010.5 |
| 20260510084547 | 51 | 0 | 0.9 | 3.5 | 0.00 | 0.42 | 0.00 | 95 | 1010.3 |
| 20260510083051 | 52 | 320 | 0.9 | 3.5 | 0.00 | 0.42 | 0.00 | 96 | 1010.2 |
| 20260510081549 | 52 | 0 | 0.0 | 1.7 | 0.00 | 0.42 | 0.00 | 96 | 1009.9 |
| 20260510080050 | 52 | 0 | 0.0 | 1.7 | 0.00 | 0.42 | 0.00 | 96 | 1009.6 |
| 20260510074552 | 52 | 0 | 0.0 | 0.9 | 0.00 | 0.55 | 0.00 | 96 | 1009.5 |
| 20260510073052 | 52 | 350 | 0.0 | 0.0 | 0.00 | 0.55 | 0.00 | 96 | 1009.3 |
| 20260510071555 | 51 | 0 | 0.0 | 2.6 | 0.00 | 0.55 | 0.00 | 96 | 1009.3 |
| 20260510070054 | 52 | 0 | 0.0 | 0.0 | 0.00 | 0.55 | 0.00 | 95 | 1009.1 |
| 20260510064550 | 52 | 0 | 0.0 | 0.9 | 0.00 | 0.65 | 0.00 | 95 | 1008.9 |
| 20260510063054 | 53 | 0 | 0.0 | 0.9 | 0.00 | 0.65 | 0.00 | 95 | 1008.7 |
| 20260510061552 | 53 | 0 | 0.0 | 4.3 | 0.00 | 0.65 | 0.00 | 96 | 1008.5 |
| 20260510060048 | 53 | 329 | 0.9 | 2.6 | 0.00 | 0.65 | 0.00 | 95 | 1008.4 |
| 20260510054549 | 53 | 0 | 0.0 | 3.5 | 0.00 | 0.69 | 0.00 | 96 | 1008.3 |
| 20260510053059 | 53 | 177 | 0.9 | 5.2 | 0.00 | 0.69 | 0.00 | 96 | 1008.6 |
| 20260510051551 | 53 | 202 | 0.9 | 1.7 | 0.00 | 0.69 | 0.00 | 95 | 1008.7 |
| 20260510050049 | 53 | 0 | 0.0 | 1.7 | 0.00 | 0.69 | 0.00 | 95 | 1008.1 |
| 20260510044551 | 53 | 0 | 0.0 | 0.9 | 0.01 | 0.73 | 0.00 | 95 | 1008.0 |
| 20260510043100 | 54 | 0 | 0.0 | 1.7 | 0.02 | 0.73 | 0.00 | 95 | 1008.2 |
| 20260510041549 | 54 | 0 | 0.0 | 1.7 | 0.03 | 0.73 | 0.00 | 95 | 1008.4 |
| 20260510040053 | 55 | 0 | 0.9 | 2.6 | 0.03 | 0.73 | 0.00 | 95 | 1008.7 |
| 20260510034544 | 55 | 196 | 0.0 | 3.5 | 0.02 | 0.74 | 0.72 | 95 | 1007.9 |
| 20260510033057 | 55 | 0 | 0.0 | 1.7 | 0.01 | 0.73 | 0.71 | 95 | 1007.9 |
| 20260510031549 | 55 | 145 | 0.0 | 1.7 | 0.00 | 0.72 | 0.70 | 95 | 1008.0 |
| 20260510030047 | 55 | 0 | 0.0 | 2.6 | 0.00 | 0.72 | 0.70 | 95 | 1008.6 |
| 20260510024550 | 54 | 0 | 0.0 | 1.7 | 0.00 | 0.74 | 0.70 | 95 | 1007.8 |
| 20260510023042 | 54 | 0 | 0.0 | 2.6 | 0.00 | 0.74 | 0.70 | 94 | 1007.4 |
| 20260510021550 | 54 | 166 | 0.0 | 2.6 | 0.00 | 0.74 | 0.70 | 94 | 1007.4 |
| 20260510020047 | 54 | 153 | 0.9 | 2.6 | 0.02 | 0.74 | 0.70 | 94 | 1007.5 |
| 20260510014550 | 55 | 182 | 0.0 | 3.5 | 0.04 | 0.77 | 0.70 | 94 | 1007.3 |
| 20260510013050 | 55 | 0 | 0.0 | 1.7 | 0.08 | 0.77 | 0.70 | 94 | 1006.8 |
| 20260510011552 | 55 | 120 | 0.0 | 1.7 | 0.12 | 0.77 | 0.70 | 93 | 1006.9 |
| 20260510010043 | 55 | 0 | 0.0 | 1.7 | 0.16 | 0.75 | 0.68 | 93 | 1007.0 |
| 20260510004551 | 55 | 116 | 0.0 | 2.6 | 0.19 | 0.76 | 0.66 | 92 | 1006.7 |
| 20260510003046 | 55 | 82 | 0.9 | 4.3 | 0.15 | 0.72 | 0.62 | 90 | 1007.2 |
| 20260510001549 | 56 | 13 | 0.9 | 4.3 | 0.11 | 0.68 | 0.58 | 88 | 1007.2 |
| 20260510000057 | 59 | 250 | 1.7 | 13.0 | 0.05 | 0.62 | 0.52 | 80 | 1006.5 |
| 20260509234549 | 66 | 346 | 0.9 | 6.1 | 0.00 | 0.57 | 0.47 | 64 | 1005.6 |
| 20260509233048 | 66 | 188 | 2.6 | 7.0 | 0.00 | 0.57 | 0.47 | 61 | 1004.8 |
| 20260509231548 | 66 | 147 | 2.6 | 11.3 | 0.00 | 0.57 | 0.47 | 61 | 1004.9 |
| 20260509230044 | 67 | 156 | 2.6 | 7.8 | 0.00 | 0.57 | 0.47 | 60 | 1004.8 |
| 20260509224549 | 67 | 211 | 3.5 | 9.6 | 0.00 | 0.57 | 0.47 | 60 | 1004.6 |
| 20260509223044 | 67 | 200 | 4.3 | 9.6 | 0.00 | 0.57 | 0.47 | 59 | 1004.5 |
| 20260509221546 | 68 | 203 | 3.5 | 9.6 | 0.00 | 0.57 | 0.47 | 59 | 1004.6 |
| 20260509220049 | 68 | 163 | 4.3 | 10.4 | 0.00 | 0.57 | 0.47 | 58 | 1004.6 |
| 20260509214559 | 68 | 177 | 3.5 | 8.7 | 0.00 | 0.57 | 0.47 | 60 | 1004.5 |
| 20260509213048 | 68 | 201 | 1.7 | 9.6 | 0.00 | 0.57 | 0.47 | 58 | 1004.6 |
| 20260509211550 | 68 | 141 | 3.5 | 10.4 | 0.00 | 0.57 | 0.47 | 57 | 1004.9 |
| 20260509204549 | 68 | 151 | 3.5 | 9.6 | 0.00 | 0.58 | 0.47 | 59 | 1005.3 |
| 20260509203101 | 68 | 121 | 4.3 | 8.7 | 0.00 | 0.58 | 0.47 | 58 | 1005.3 |
| 20260509201548 | 68 | 184 | 3.5 | 8.7 | 0.00 | 0.58 | 0.47 | 59 | 1005.4 |
| 20260509200047 | 67 | 107 | 3.5 | 8.7 | 0.00 | 0.58 | 0.47 | 62 | 1005.7 |
| 20260509194548 | 67 | 160 | 1.7 | 10.4 | 0.00 | 0.61 | 0.47 | 63 | 1005.7 |
| 20260509193057 | 66 | 158 | 2.6 | 9.6 | 0.00 | 0.61 | 0.47 | 64 | 1006.1 |
| 20260509191557 | 66 | 121 | 3.5 | 7.8 | 0.00 | 0.61 | 0.47 | 67 | 1006.2 |
| 20260509190054 | 65 | 169 | 2.6 | 9.6 | 0.00 | 0.61 | 0.47 | 68 | 1006.2 |
| 20260509184555 | 65 | 171 | 1.7 | 10.4 | 0.00 | 0.63 | 0.47 | 66 | 1006.3 |
| 20260509183056 | 65 | 146 | 3.5 | 8.7 | 0.00 | 0.63 | 0.47 | 66 | 1006.4 |
| 20260509181542 | 64 | 155 | 2.6 | 8.7 | 0.00 | 0.63 | 0.47 | 67 | 1006.6 |
| 20260509180045 | 64 | 224 | 1.7 | 8.7 | 0.00 | 0.63 | 0.47 | 69 | 1006.6 |
| 20260509174601 | 63 | 163 | 2.6 | 9.6 | 0.00 | 0.63 | 0.47 | 69 | 1006.7 |
| 20260509173053 | 62 | 190 | 3.5 | 8.7 | 0.00 | 0.63 | 0.47 | 70 | 1006.4 |
| 20260509171547 | 61 | 128 | 3.5 | 9.6 | 0.00 | 0.63 | 0.47 | 73 | 1006.6 |
| 20260509170045 | 61 | 110 | 1.7 | 8.7 | 0.00 | 0.63 | 0.47 | 75 | 1006.8 |
| 20260509164546 | 60 | 236 | 2.6 | 7.8 | 0.00 | 0.63 | 0.47 | 78 | 1007.0 |
| 20260509163048 | 60 | 18 | 2.6 | 6.1 | 0.00 | 0.63 | 0.47 | 80 | 1007.0 |
| 20260509161549 | 59 | 173 | 1.7 | 6.1 | 0.00 | 0.63 | 0.47 | 85 | 1007.1 |
| 20260509160051 | 58 | 140 | 1.7 | 6.1 | 0.00 | 0.63 | 0.47 | 86 | 1007.1 |
| 20260509154549 | 57 | 104 | 1.7 | 6.1 | 0.00 | 0.63 | 0.47 | 88 | 1007.1 |
| 20260509153054 | 56 | 127 | 2.6 | 7.8 | 0.00 | 0.63 | 0.47 | 89 | 1007.0 |
| 20260509151547 | 56 | 167 | 0.9 | 7.8 | 0.00 | 0.63 | 0.47 | 91 | 1006.9 |
| 20260509150047 | 55 | 167 | 1.7 | 6.1 | 0.00 | 0.63 | 0.47 | 94 | 1006.8 |
| 20260509144550 | 54 | 105 | 0.9 | 5.2 | 0.00 | 0.63 | 0.47 | 95 | 1006.9 |
| 20260509143052 | 53 | 117 | 1.7 | 7.0 | 0.00 | 0.63 | 0.47 | 95 | 1006.9 |
| 20260509141550 | 53 | 129 | 0.9 | 4.3 | 0.00 | 0.63 | 0.47 | 97 | 1006.8 |
| 20260509140048 | 53 | 0 | 0.9 | 2.6 | 0.00 | 0.63 | 0.47 | 97 | 1006.7 |
| 20260509134551 | 53 | 164 | 1.7 | 5.2 | 0.00 | 0.63 | 0.47 | 96 | 1006.9 |
| 20260509133049 | 52 | 148 | 0.9 | 4.3 | 0.00 | 0.63 | 0.47 | 96 | 1007.0 |
| 20260509131550 | 52 | 175 | 0.9 | 4.3 | 0.00 | 0.63 | 0.47 | 96 | 1007.1 |
| 20260509130053 | 52 | 136 | 0.9 | 3.5 | 0.00 | 0.63 | 0.47 | 97 | 1007.2 |
| 20260509124549 | 51 | 123 | 0.9 | 3.5 | 0.00 | 0.63 | 0.47 | 96 | 1007.3 |
| 20260509123051 | 51 | 179 | 0.0 | 2.6 | 0.00 | 0.63 | 0.47 | 96 | 1007.3 |
| 20260509121546 | 51 | 171 | 0.9 | 2.6 | 0.00 | 0.63 | 0.47 | 96 | 1007.3 |
| 20260509120049 | 51 | 164 | 1.7 | 4.3 | 0.00 | 0.63 | 0.47 | 96 | 1007.4 |
| 20260509114556 | 51 | 175 | 0.9 | 2.6 | 0.00 | 0.63 | 0.47 | 96 | 1007.4 |
| 20260509113056 | 51 | 142 | 0.9 | 2.6 | 0.01 | 0.63 | 0.47 | 96 | 1007.2 |
| 20260509111548 | 51 | 144 | 0.9 | 3.5 | 0.01 | 0.63 | 0.47 | 96 | 1007.2 |
| 20260509110049 | 51 | 0 | 1.7 | 3.5 | 0.03 | 0.63 | 0.47 | 96 | 1007.0 |
| 20260509104548 | 51 | 168 | 0.9 | 3.5 | 0.04 | 0.64 | 0.47 | 96 | 1006.9 |
| 20260509103059 | 51 | 169 | 0.9 | 3.5 | 0.04 | 0.63 | 0.46 | 96 | 1006.8 |
| 20260509101600 | 51 | 44 | 0.0 | 3.5 | 0.05 | 0.63 | 0.46 | 96 | 1007.1 |
| 20260509100043 | 51 | 174 | 0.0 | 3.5 | 0.04 | 0.61 | 0.44 | 96 | 1007.0 |
| 20260509094553 | 50 | 126 | 0.9 | 3.5 | 0.05 | 0.60 | 0.43 | 96 | 1007.2 |